| time (UTC) | temp F | wind direction | speed knots | gust knots | rain 1hr in | rain 24hr in | rain mn in | humidity % | barometer mb |
| 20260901163046 | 95 | 261 | 1.7 | 7.8 | 0.00 | 0.00 | 0.00 | 49 | 1017.7 |
| 20260901161546 | 94 | 252 | 4.3 | 9.6 | 0.00 | 0.00 | 0.00 | 48 | 1017.8 |
| 20260901160059 | 94 | 256 | 1.7 | 9.6 | 0.00 | 0.00 | 0.00 | 49 | 1017.7 |
| 20260901154551 | 92 | 320 | 1.7 | 10.4 | 0.00 | 0.00 | 0.00 | 52 | 1017.9 |
| 20260901153053 | 90 | 252 | 6.1 | 10.4 | 0.00 | 0.00 | 0.00 | 52 | 1017.9 |
| 20260901151545 | 90 | 239 | 3.5 | 9.6 | 0.00 | 0.00 | 0.00 | 54 | 1017.9 |
| 20260901150104 | 89 | 298 | 3.5 | 8.7 | 0.00 | 0.00 | 0.00 | 57 | 1017.8 |
| 20260901144545 | 88 | 246 | 3.5 | 9.6 | 0.00 | 0.00 | 0.00 | 59 | 1017.8 |
| 20260901143112 | 86 | 267 | 4.3 | 8.7 | 0.00 | 0.00 | 0.00 | 60 | 1017.8 |
| 20260901141549 | 85 | 249 | 4.3 | 8.7 | 0.00 | 0.00 | 0.00 | 63 | 1017.9 |
| 20260901140047 | 84 | 257 | 4.3 | 9.6 | 0.00 | 0.00 | 0.00 | 64 | 1018.2 |
| 20260901134618 | 82 | 268 | 1.7 | 7.0 | 0.00 | 0.00 | 0.00 | 68 | 1018.0 |
| 20260901133057 | 82 | 238 | 2.6 | 7.0 | 0.00 | 0.00 | 0.00 | 68 | 1017.9 |
| 20260901131559 | 80 | 248 | 1.7 | 7.0 | 0.00 | 0.00 | 0.00 | 70 | 1017.9 |
| 20260901130052 | 79 | 233 | 1.7 | 3.5 | 0.00 | 0.00 | 0.00 | 72 | 1017.8 |
| 20260901124554 | 78 | 242 | 1.7 | 3.5 | 0.00 | 0.00 | 0.00 | 73 | 1017.7 |
| 20260901123046 | 77 | 246 | 0.9 | 2.6 | 0.00 | 0.00 | 0.00 | 74 | 1017.6 |
| 20260901121605 | 76 | 247 | 0.9 | 1.7 | 0.00 | 0.00 | 0.00 | 76 | 1017.4 |
| 20260901120049 | 75 | 247 | 0.9 | 2.6 | 0.00 | 0.00 | 0.00 | 78 | 1017.1 |
| 20260901114601 | 75 | 0 | 0.9 | 3.5 | 0.00 | 0.00 | 0.00 | 78 | 1017.0 |
| 20260901113055 | 74 | 255 | 0.9 | 2.6 | 0.00 | 0.00 | 0.00 | 79 | 1016.8 |
| 20260901111556 | 75 | 0 | 0.0 | 1.7 | 0.00 | 0.00 | 0.00 | 79 | 1016.6 |
| 20260901110054 | 75 | 0 | 0.0 | 1.7 | 0.00 | 0.00 | 0.00 | 79 | 1016.8 |
| 20260901104546 | 75 | 0 | 0.0 | 1.7 | 0.00 | 0.00 | 0.00 | 78 | 1016.7 |
| 20260901103045 | 76 | 262 | 0.0 | 1.7 | 0.00 | 0.00 | 0.00 | 77 | 1016.6 |
| 20260901101555 | 76 | 262 | 0.9 | 2.6 | 0.00 | 0.00 | 0.00 | 77 | 1016.6 |
| 20260901100048 | 76 | 262 | 0.9 | 2.6 | 0.00 | 0.00 | 0.00 | 76 | 1016.5 |
| 20260901094547 | 76 | 262 | 0.0 | 2.6 | 0.00 | 0.00 | 0.00 | 76 | 1016.5 |
| 20260901093045 | 77 | 262 | 1.7 | 3.5 | 0.00 | 0.00 | 0.00 | 75 | 1016.4 |
| 20260901091555 | 77 | 249 | 0.9 | 4.3 | 0.00 | 0.00 | 0.00 | 74 | 1016.2 |
| 20260901090047 | 77 | 262 | 1.7 | 3.5 | 0.00 | 0.00 | 0.00 | 75 | 1016.2 |
| 20260901084544 | 77 | 243 | 0.9 | 6.1 | 0.00 | 0.00 | 0.00 | 75 | 1015.9 |
| 20260901083054 | 78 | 259 | 1.7 | 3.5 | 0.00 | 0.00 | 0.00 | 75 | 1015.8 |
| 20260901081550 | 78 | 235 | 0.0 | 3.5 | 0.00 | 0.00 | 0.00 | 74 | 1015.9 |
| 20260901080049 | 78 | 242 | 1.7 | 3.5 | 0.00 | 0.00 | 0.00 | 74 | 1015.8 |
| 20260901074559 | 78 | 245 | 0.9 | 3.5 | 0.00 | 0.00 | 0.00 | 74 | 1015.9 |
| 20260901073044 | 78 | 0 | 0.0 | 2.6 | 0.00 | 0.00 | 0.00 | 74 | 1015.9 |
| 20260901071550 | 79 | 254 | 0.0 | 2.6 | 0.00 | 0.00 | 0.00 | 73 | 1015.7 |
| 20260901070048 | 79 | 0 | 0.0 | 2.6 | 0.00 | 0.00 | 0.00 | 72 | 1015.8 |
| 20260901064552 | 79 | 256 | 0.9 | 5.2 | 0.00 | 0.00 | 0.00 | 72 | 1015.8 |
| 20260901063054 | 80 | 0 | 0.0 | 2.6 | 0.00 | 0.00 | 0.00 | 71 | 1015.9 |
| 20260901061546 | 81 | 0 | 0.0 | 2.6 | 0.00 | 0.00 | 0.00 | 69 | 1015.8 |
| 20260901060050 | 81 | 0 | 0.0 | 7.0 | 0.00 | 0.00 | 0.00 | 68 | 1015.8 |
| 20260901054546 | 82 | 245 | 0.9 | 7.0 | 0.00 | 0.00 | 0.00 | 67 | 1015.9 |
| 20260901053054 | 82 | 240 | 0.9 | 4.3 | 0.00 | 0.00 | 0.00 | 66 | 1015.8 |
| 20260901051559 | 83 | 250 | 1.7 | 4.3 | 0.00 | 0.00 | 0.00 | 65 | 1015.7 |
| 20260901050054 | 83 | 241 | 0.0 | 4.3 | 0.00 | 0.00 | 0.00 | 65 | 1015.8 |
| 20260901044552 | 83 | 261 | 0.9 | 4.3 | 0.00 | 0.00 | 0.00 | 64 | 1015.9 |
| 20260901043059 | 83 | 218 | 1.7 | 4.3 | 0.00 | 0.00 | 0.00 | 64 | 1015.8 |
| 20260901041546 | 83 | 254 | 1.7 | 5.2 | 0.00 | 0.00 | 0.00 | 64 | 1015.9 |
| 20260901040111 | 84 | 232 | 0.9 | 5.2 | 0.00 | 0.00 | 0.00 | 63 | 1015.9 |
| 20260901034549 | 84 | 232 | 0.9 | 4.3 | 0.00 | 0.00 | 0.00 | 63 | 1016.0 |
| 20260901033056 | 85 | 238 | 2.6 | 8.7 | 0.00 | 0.00 | 0.00 | 62 | 1015.9 |
| 20260901031552 | 85 | 0 | 0.9 | 7.8 | 0.00 | 0.00 | 0.00 | 62 | 1015.7 |
| 20260901030053 | 86 | 231 | 0.9 | 7.0 | 0.00 | 0.00 | 0.00 | 62 | 1015.6 |
| 20260901024549 | 86 | 232 | 2.6 | 7.8 | 0.00 | 0.00 | 0.00 | 61 | 1015.4 |
| 20260901023046 | 86 | 0 | 3.5 | 8.7 | 0.00 | 0.00 | 0.00 | 60 | 1015.3 |
| 20260901021554 | 87 | 248 | 2.6 | 8.7 | 0.00 | 0.00 | 0.00 | 60 | 1015.3 |
| 20260901020056 | 87 | 193 | 3.5 | 8.7 | 0.00 | 0.00 | 0.00 | 59 | 1015.1 |
| 20260901014554 | 88 | 284 | 2.6 | 7.8 | 0.00 | 0.00 | 0.00 | 58 | 1015.1 |
| 20260901013108 | 88 | 232 | 1.7 | 7.0 | 0.00 | 0.00 | 0.00 | 57 | 1014.9 |
| 20260901011551 | 89 | 235 | 1.7 | 4.3 | 0.00 | 0.00 | 0.00 | 57 | 1014.9 |
| 20260901010054 | 90 | 254 | 0.9 | 3.5 | 0.00 | 0.00 | 0.00 | 56 | 1014.8 |
| 20260901004554 | 91 | 244 | 0.0 | 2.6 | 0.00 | 0.00 | 0.00 | 54 | 1014.7 |
| 20260901003054 | 92 | 0 | 0.0 | 3.5 | 0.00 | 0.00 | 0.00 | 54 | 1014.7 |
| 20260901001553 | 93 | 240 | 0.9 | 2.6 | 0.00 | 0.00 | 0.00 | 52 | 1014.6 |
| 20260901000051 | 94 | 0 | 0.9 | 6.1 | 0.00 | 0.00 | 0.00 | 51 | 1014.6 |
| 20260831234553 | 95 | 239 | 1.7 | 7.8 | 0.00 | 0.00 | 0.00 | 49 | 1014.6 |
| 20260831233052 | 96 | 240 | 0.9 | 6.1 | 0.00 | 0.00 | 0.00 | 48 | 1014.8 |
| 20260831231547 | 96 | 275 | 2.6 | 7.8 | 0.00 | 0.00 | 0.00 | 46 | 1014.7 |
| 20260831230054 | 97 | 261 | 3.5 | 8.7 | 0.00 | 0.00 | 0.00 | 46 | 1014.8 |
| 20260831224557 | 97 | 220 | 3.5 | 9.6 | 0.00 | 0.00 | 0.00 | 45 | 1014.6 |
| 20260831223052 | 97 | 269 | 4.3 | 13.9 | 0.00 | 0.00 | 0.00 | 45 | 1014.8 |
| 20260831221603 | 98 | 277 | 5.2 | 13.0 | 0.00 | 0.00 | 0.00 | 45 | 1014.7 |
| 20260831220049 | 98 | 219 | 4.3 | 12.2 | 0.00 | 0.00 | 0.00 | 43 | 1014.7 |
| 20260831214545 | 98 | 249 | 6.1 | 12.2 | 0.00 | 0.00 | 0.00 | 43 | 1014.7 |
| 20260831213052 | 98 | 246 | 4.3 | 10.4 | 0.00 | 0.00 | 0.00 | 42 | 1014.8 |
| 20260831211549 | 98 | 217 | 4.3 | 11.3 | 0.00 | 0.00 | 0.00 | 43 | 1014.7 |
| 20260831210046 | 98 | 204 | 4.3 | 10.4 | 0.00 | 0.00 | 0.00 | 43 | 1014.8 |
| 20260831204544 | 98 | 229 | 4.3 | 9.6 | 0.00 | 0.00 | 0.00 | 43 | 1014.9 |
| 20260831203125 | 97 | 252 | 5.2 | 13.0 | 0.00 | 0.00 | 0.00 | 44 | 1015.1 |
| 20260831201602 | 98 | 229 | 4.3 | 9.6 | 0.00 | 0.00 | 0.00 | 44 | 1015.1 |
| 20260831200133 | 98 | 244 | 5.2 | 11.3 | 0.00 | 0.00 | 0.00 | 45 | 1015.1 |
| 20260831194559 | 98 | 233 | 2.6 | 11.3 | 0.00 | 0.00 | 0.00 | 46 | 1015.2 |
| 20260831193054 | 97 | 213 | 4.3 | 11.3 | 0.00 | 0.00 | 0.00 | 45 | 1015.4 |
| 20260831191554 | 98 | 224 | 3.5 | 12.2 | 0.00 | 0.00 | 0.00 | 45 | 1015.6 |
| 20260831190046 | 97 | 0 | 3.5 | 8.7 | 0.00 | 0.00 | 0.00 | 45 | 1015.7 |
| 20260831184556 | 97 | 261 | 4.3 | 8.7 | 0.00 | 0.00 | 0.00 | 46 | 1015.8 |
| 20260831183051 | 97 | 239 | 2.6 | 11.3 | 0.00 | 0.00 | 0.00 | 41 | 1015.9 |
| 20260831181554 | 97 | 301 | 1.7 | 8.7 | 0.00 | 0.00 | 0.00 | 44 | 1016.1 |
| 20260831180048 | 97 | 268 | 3.5 | 9.6 | 0.00 | 0.00 | 0.00 | 44 | 1016.3 |
| 20260831174553 | 96 | 254 | 4.3 | 10.4 | 0.00 | 0.00 | 0.00 | 45 | 1016.6 |
| 20260831173046 | 95 | 241 | 3.5 | 11.3 | 0.00 | 0.00 | 0.00 | 46 | 1016.7 |
| 20260831171552 | 95 | 240 | 4.3 | 11.3 | 0.00 | 0.00 | 0.00 | 46 | 1016.9 |
| 20260831170056 | 93 | 227 | 5.2 | 12.2 | 0.00 | 0.00 | 0.00 | 48 | 1017.1 |
| 20260831164553 | 93 | 266 | 3.5 | 11.3 | 0.00 | 0.00 | 0.00 | 47 | 1017.3 |